Spokane Fairchild, WA

6:08 PM PDT on June 24, 2017 (GMT -0700)
Fairchild Air Force Base

Weather History for KSKA - November, 2014

Change the Weather History Date:

Tuesday, November 18, 2014

  Actual Average Record
Temperature  
Mean Temperature 22 °F -  
Max Temperature 30 °F 39 °F 55 °F (2003)
Min Temperature 15 °F 28 °F 15 °F (2014)
Degree Days  
Heating Degree Days 42    
Moisture  
Dew Point 16 °F    
Average Humidity 70    
Maximum Humidity 84    
Minimum Humidity 59    
Precipitation  
Precipitation 0.00 in - - ()
Sea Level Pressure  
Sea Level Pressure 30.31 in    
Wind  
Wind Speed 6 mph (NE)    
Max Wind Speed 10 mph    
Max Gust Speed -    
Visibility 10 miles    
Events      
Averages and records for this station are not official NWS values.
T = Trace of Precipitation, MM = Missing Value Source: NWS Daily Summary

Daily Weather History Graph

Daily Weather History Graph

Search for Another Location

Airport or City:

Trip Planner

Search our weather history database for the weather conditions in past years. The results will help you decide how hot, cold, wet, or windy it might be!

Date:

Astronomy

Nov. 18, 2014 Rise Set
Actual Time 7:00 AM PST 4:10 PM PST
Civil Twilight 6:26 AM PST 4:44 PM PST
Nautical Twilight 5:48 AM PST 5:22 PM PST
Astronomical Twilight 5:12 AM PST 5:58 PM PST
Moon 2:46 AM PST (11/18) 2:23 PM PST (11/18)
Length of Visible Light 10h 18m
Length of Day
9h 10m
Waning Crescent, 14% of the Moon is Illuminated
Nov 18
Waning Crescent
Nov 22
New
Nov 29
First Quarter
Dec 6
Full
Dec 14
Last Quarter

Hourly Weather History & Observations

Time (PST) Temp. Windchill Dew Point Humidity Pressure Visibility Wind Dir Wind Speed Gust Speed Precip Events Conditions
12:58 AM 19.8 °F 10.8 °F 13.8 °F 78% 30.43 in 10.0 mi ENE 6.9 mph - N/A   Clear
1:58 AM 19.9 °F 8.6 °F 14.0 °F 78% 30.43 in 10.0 mi NE 10.4 mph - N/A   Clear
5:58 AM 15.6 °F 7.0 °F 11.7 °F 84% 30.40 in 10.0 mi North 5.8 mph - N/A   Overcast
6:23 AM 15.8 °F - 10.4 °F 79% 30.28 in 10.0 mi NE 1.2 mph - N/A   Mostly Cloudy
7:58 AM 16.9 °F 11.5 °F 12.9 °F 84% 30.38 in 10.0 mi East 3.5 mph - N/A   Scattered Clouds
11:40 AM 30.2 °F 22.6 °F 17.6 °F 60% 30.25 in 10.0 mi ENE 8.1 mph - N/A   Mostly Cloudy
11:58 AM 29.1 °F 21.3 °F 17.6 °F 62% 30.37 in 10.0 mi NE 8.1 mph - 0.00 in   Mostly Cloudy
1:58 PM 28.9 °F 21.9 °F 17.4 °F 62% 30.32 in 10.0 mi ENE 6.9 mph - N/A   Overcast
2:58 PM 29.1 °F 22.1 °F 16.5 °F 59% 30.35 in 10.0 mi NE 6.9 mph - N/A   Overcast
4:58 PM 27.7 °F 22.4 °F 17.2 °F 65% 30.33 in 10.0 mi NE 4.6 mph - N/A   Overcast
5:58 PM 28.0 °F 24.2 °F 17.2 °F 64% 30.33 in 10.0 mi North 3.5 mph - N/A   Overcast
6:58 PM 26.8 °F 22.8 °F 17.6 °F 68% 30.34 in 10.0 mi NNE 3.5 mph - N/A   Overcast
7:24 PM 26.6 °F 22.6 °F 17.6 °F 69% 30.22 in 10.0 mi North 3.5 mph - N/A   Overcast
7:39 PM 26.6 °F 20.0 °F 17.6 °F 69% 30.21 in 10.0 mi North 5.8 mph - N/A   Mostly Cloudy
7:58 PM 26.8 °F 21.4 °F 17.4 °F 68% 30.32 in 10.0 mi North 4.6 mph - 0.00 in   Mostly Cloudy
8:12 PM 26.6 °F 21.2 °F 17.6 °F 69% 30.21 in 10.0 mi North 4.6 mph - N/A   Mostly Cloudy
8:25 PM 24.8 °F 17.9 °F 17.6 °F 74% 30.21 in 10.0 mi NNE 5.8 mph - N/A   Mostly Cloudy
8:58 PM 25.9 °F 18.2 °F 17.4 °F 70% 30.31 in 10.0 mi NE 6.9 mph - 0.00 in   Mostly Cloudy
9:58 PM 27.7 °F 21.3 °F 18.0 °F 67% 30.31 in 10.0 mi NE 5.8 mph - N/A   Overcast
10:58 PM 27.0 °F 21.6 °F 18.0 °F 69% 30.30 in 10.0 mi NE 4.6 mph - N/A   Overcast
11:58 PM 25.9 °F 18.2 °F 17.8 °F 71% 30.29 in 10.0 mi NE 6.9 mph - N/A   Overcast